Miscellaneous Local Product
Issued by NWS North Platte, NE

Home | Current Version | Previous Version | Text Only | Print | Product List | Glossary On
Versions: 1 2 3 4 5 6 7 8 9 10 11 12 13 14 15 16 17 18 19 20 21 22 23 24 25 26 27 28 29 30 31 32 33 34 35 36 37 38 39 40 41 42 43 44 45 46 47 48 49 50
061
AXUS43 KLBF 250310
MISLBF


WESTERN AND NORTH CENTRAL NEBRASKA HOURLY WEATHER ROUNDUP
NATIONAL WEATHER SERVICE NORTH PLATTE NE
900 PM CST FRI FEB 24 2017

NOTE: "FAIR" INDICATES FEW OR NO CLOUDS BELOW 12,000 FEET WITH NO
SIGNIFICANT WEATHER AND/OR OBSTRUCTIONS TO VISIBILITY.

NOTE: STATIONS NOT REPORTING VARIABLES SUCH AS SKY/WEATHER OR
PRESSURE ARE PROVIDED BY RAWS AND APRS NETWORKS AND ARE NOT UNDER
NATIONAL WEATHER SERVICE QUALITY CONTROL.

...OBSERVATIONS IN AND NEAR THE EASTERN PANHANDLE OF NEBRASKA...

CITY           SKY/WX    TMP DP  RH WIND       PRES   REMARKS
PINE RIDGE     CLOUDY     9   7  92 W3        30.07S
CHADRON        CLOUDY     8   5  87 W3        30.07F
ALLIANCE       CLOUDY     2  -2  83 W6        30.05S WCI  -9
SIDNEY         CLOUDY    10   7  87 W7        30.05F WCI  -1
CRESCENT LAKE    N/A     14  13  95 W3          N/A
$$

...OBSERVATIONS IN NORTHERN NEBRASKA AND FAR SOUTHERN SOUTH DAKOTA...

CITY           SKY/WX    TMP DP  RH WIND       PRES   REMARKS
WINNER         FAIR      18  11  74 NW7       30.12R WCI   9
VALENTINE      CLOUDY     8   3  80 W3        30.11R
THEDFORD       CLOUDY    10   7  87 W7        30.11R WCI  -1
AINSWORTH      CLOUDY    15  11  87 NW6       30.10R WCI   6
O`NEILL        CLEAR     22  15  74 NW16      30.09R WCI   9
ORD            CLEAR     19  12  74 NW9       30.09R WCI   8
BROKEN BOW     CLEAR     17  11  77 NW13      30.10R WCI   4
VALENTINE NWR    N/A     14  10  85 NW7         N/A  WCI   4
BUTTE            N/A     19  13  79 NW10        N/A  WCI   7
HALSEY           N/A     14   8  78 W6          N/A  WCI   5
CHAMBERS         N/A     21  10  63 N6          N/A  WCI  13
EWING            N/A     23  18  80 NW15        N/A  WCI  10
$$

...OBSERVATIONS IN SOUTHWEST NEBRASKA AND FAR NORTHEAST COLORADO...

CITY           SKY/WX    TMP DP  RH WIND       PRES   REMARKS
HOLYOKE        FAIR      21  18  86 NW3       30.10R
IMPERIAL       CLOUDY    21  15  78 NW7       30.11R WCI  12
OGALLALA       CLOUDY    17  13  86 CALM      30.11S
NORTH PLATTE   CLOUDY    12   6  77 NW6       30.13R WCI   3
MCCOOK         CLOUDY    19  12  74 W5        30.14R WCI  12
LEXINGTON      CLOUDY    15  10  80 W8        30.13R WCI   4
STAPLETON        N/A     12   8  85 CALM        N/A
GOTHENBURG       N/A     17  11  77 NW5         N/A  WCI  10
CALLAWAY         N/A     12   9  87 NW10        N/A  WCI  -1
$$

...OBSERVATIONS IN CENTRAL LINCOLN COUNTY AREA...

CITY           SKY/WX    TMP DP  RH WIND       PRES   REMARKS
N.P. AIRPORT   CLOUDY    12   6  77 NW6       30.13R WCI   3
N.P. DOWNTOWN    N/A     18  11  74 W3          N/A
N.P. SOUTHEAST   N/A     17  10  72 NW3         N/A
N.P. HILLCREST   N/A     15  10  80 NW6         N/A  WCI   6
$$

...SOME OBSERVATIONS FROM AROUND THE REGION...

CITY           SKY/WX    TMP DP  RH WIND       PRES   REMARKS
LARAMIE        CLOUDY     2   0  91 S7        29.90S WCI -11
CHEYENNE       CLOUDY     5   1  83 W7        29.96S WCI  -7
DENVER         CLOUDY    20  15  81 E6        30.01R WCI  12
AKRON          PTCLDY    18  13  80 NW3       30.05R
SCOTTSBLUFF    CLOUDY    13  10  88 N3        30.05S
RAPID CITY     CLOUDY    17  13  84 SW3       30.05S
BISMARCK       CLEAR     24  16  71 CALM      30.11F
PIERRE         CLEAR     19  12  74 W6        30.12S WCI  11
SIOUX FALLS    MOCLDY    22  14  71 N21       30.03R WCI   6
OMAHA          CLOUDY    24  16  71 NW15      30.00R WCI  11
GRAND ISLAND   CLEAR     19  14  81 NW13      30.10R WCI   6
KANSAS CITY    FLURRIES  26  21  81 NW15G25   30.01R WCI  14
WICHITA        PTCLDY    28  17  63 N17       30.13R WCI  16
OKLAHOMA CITY  PTCLDY    38  22  52 N17G26    30.09R WCI  28
DALLAS         CLEAR     53  31  42 N12       30.02R
AMARILLO       CLEAR     31  16  54 NE10      30.06R WCI  22
DODGE CITY     CLEAR     21  11  65 N8        30.12R WCI  11
HAYS           CLEAR     24  15  68 N12       30.15R WCI  13
GOODLAND       CLOUDY    16  13  88 NW5       30.08R WCI   9
$$




USA.gov is the U.S. government's official web portal to all federal, state and local government web resources and services.